Regional Weather Roundup
Issued by NWS

Home | Current Version | Previous Version | Text Only | Print | Product List | Glossary Off
Versions: 1 2 3 4 5 6 7 8 9 10 11 12 13 14 15 16 17 18 19 20 21 22 23 24 25 26 27 28 29 30 31 32 33 34 35 36 37 38 39 40 41 42 43 44 45 46 47 48 49 50

000
ASUS43 KMKX 021500
RWRWI

WISCONSIN REGIONAL WEATHER ROUNDUP
NATIONAL WEATHER SERVICE MILWAUKEE/SULLIVAN WI
1000 AM CDT TUE SEP 02 2014

NOTE: "FAIR" INDICATES FEW OR NO CLOUDS BELOW 12,000 FEET WITH NO
SIGNIFICANT WEATHER AND/OR OBSTRUCTIONS TO VISIBILITY.

WIZ001-002-006>008-014>016-023>028-021600-
NORTHWEST WISCONSIN

CITY           SKY/WX    TMP DP  RH WIND       PRES   REMARKS
SUPERIOR ARPT  SUNNY     63  56  79 SW6       29.83S
ASHLAND        MOSUNNY   65  55  70 SW8       29.84S
HAYWARD        MOSUNNY   63  54  72 SW5       29.87S
SIREN          SUNNY     64  56  75 W5        29.88R
RICE LAKE      MOSUNNY   64  55  73 CALM      29.89S
LADYSMITH      PTSUNNY   64  57  78 W3        29.90R
EAU CLAIRE     MOSUNNY   68  59  73 NW6       29.88R
MENOMONIE      SUNNY     69  58  69 W3        29.88S
NEW RICHMOND   SUNNY     66  60  79 W5        29.89S
OSCEOLA        SUNNY     65  58  75 CALM      29.91S
$$

WIZ003>005-009-010-017-018-021600-
NORTH CENTRAL WISCONSIN

CITY           SKY/WX    TMP DP  RH WIND       PRES   REMARKS
WOODRUFF       MOSUNNY   62  56  82 W3        29.87R
RHINELANDER    PTSUNNY   62  56  80 W7        29.88R
EAGLE RIVER    PTSUNNY   59  57  94 SW5       29.86R
LAND O LAKES   PTSUNNY   61  59  95 W6        29.86R
PHILLIPS       SUNNY     62  55  78 W3        29.87S
TOMAHAWK       PTSUNNY   60  58  96 W3        29.88R
MEDFORD        CLOUDY    60  58  94 W7        29.89R
MERRILL        CLOUDY    60  58  91 W6        29.87R
$$

WIZ029-030-035-036-043>047-021600-
CENTRAL WISCONSIN

CITY           SKY/WX    TMP DP  RH WIND       PRES   REMARKS
WAUSAU         CLOUDY    64  58  80 SW5       29.87R
MOSINEE        PTSUNNY   63  61  94 SW7       29.89S
MARSHFIELD     CLOUDY    63  60  90 W9        29.89R
STEVENS POINT  HVY RAIN  60  57  91 CALM      29.89S
WAUPACA        CLOUDY    70  63  79 W7        29.89R
WAUTOMA        NOT AVBL
WISC RAPIDS    CLOUDY    65  59  81 SW7       29.90S
CAMP DOUGLAS   PTSUNNY   63  63 100 W10       29.89F
$$

WIZ011>013-019>022-031-037>040-048>050-021600-
NORTHEAST WISCONSIN

CITY           SKY/WX    TMP DP  RH WIND       PRES   REMARKS
ANTIGO         CLOUDY    58  55  90 CALM      29.88S
STURGEON BAY   PTSUNNY   66  59  77 W7        29.87R
GREEN BAY      CLOUDY    67  63  87 SW5       29.87S
MANITOWOC      NOT AVBL
APPLETON       PTSUNNY   66  64  94 SW9       29.88F
CLINTONVILLE   CLOUDY    63  59  88 NW3       29.89R
OSHKOSH        PTSUNNY   69  62  78 SW6       29.87F
$$

WIZ032>034-041-042-053>061-021600-
SOUTHWEST WISCONSIN

CITY           SKY/WX    TMP DP  RH WIND       PRES   REMARKS
LA CROSSE      MOSUNNY   69  57  65 SW10      29.91R
SPARTA         CLOUDY    64  59  82 SW5       29.90F
VIROQUA        FAIR      64  60  87 W5        29.91F
BOSCOBEL       PTSUNNY   67  60  78 VRB5      29.92S
PRAIRIE DU CHI MOSUNNY   66  59  78 CALM      29.91F
PLATTEVILLE    FAIR      63  62  94 CALM      29.94F
$$

WIZ056-057-062-063-064-067-068-021600-
SOUTH CENTRAL WISCONSIN

CITY           SKY/WX    TMP DP  RH WIND       PRES   REMARKS
BARABOO/DELLS  CLOUDY    64  58  80 W10       29.91F
LONE ROCK      NOT AVBL
WATERTOWN      CLOUDY    68  64  86 W5        29.90R
MADISON        PTSUNNY   68  59  73 W8        29.91R
MIDDLETON      PTSUNNY   66  62  85 NW7       29.92R
MONROE         LGT RAIN  64  59  82 W13       29.95R
JANESVILLE     PTSUNNY   70  64  83 W6        29.92R
$$

WIZ051-052-058>065-066-070>072-021600-
SOUTHEAST WISCONSIN

CITY           SKY/WX    TMP DP  RH WIND       PRES   REMARKS
MILWAUKEE      PTSUNNY   75  57  53 W6        29.90R
WAUKESHA       NOT AVBL
MILWAUKEE/TIMM SUNNY     72  57  60 SW6       29.90R
RACINE         MOSUNNY   75  58  55 CALM      29.91R
BURLINGTON     MOSUNNY   70  63  79 CALM      29.90S
KENOSHA        PTSUNNY   74  61  63 CALM      29.91R
FOND DU LAC    PTSUNNY   68  62  81 MISG      29.88F
SHEBOYGAN      CLOUDY    70  61  73 SW3       29.88S
WEST BEND      PTSUNNY   68  59  73 SW5       29.89S
JUNEAU         PTSUNNY   65  61  88 SW7       29.91S
$$

LSZ147-162-021600-
LAKE SUPERIOR

STATION/POSITION TIME  TEMP    WIND        PRES    WAVE
                       AIR SEA DIR/SP/G            HT/PER
                 (UTC) (F)     (DEG/KT/KT) (MB)    (FT/S)
W MID LAKE BUOY  1350   59 57  230/ 10/ 12 1008.4R   1/ 3
DEVILS ISLAND    1400   60     240/ 14/ 18 1009.3R
PORT WING        1440   63     180/  6/  8 1010.2F
SAXON HARBOR     1440   65     190/  4/  4 1010.2S
$$

LMZ867-665-643>646-021600-
LAKE MICHIGAN

STATION/POSITION TIME  TEMP    WIND        PRES    WAVE
                       AIR SEA DIR/SP/G            HT/PER
                 (UTC) (F)     (DEG/KT/KT) (MB)    (FT/S)
N MID LAKE BUOY  1350   64 65  260/ 10/ 12 1010.0F   2/ 6
NORTHPORT PIER   1400   69     270/  2/  6 1010.5S
KEWAUNEE LAKESHO 1400   67     250/  4/  7 1010.4R
SHEBOYGAN LAKESH 1400   69 50  240/  7/  8 1011.5S
ATWATER BUOY     1400   67     300/  2/  4 1013.2R
MILWAUKEE LAKESH 1400   72     190/  3/  3   N/A
S MID LAKE BUOY  1350   69 70  300/  4/  4 1011.7R   1
KENOSHA   LAKESH 1400   70      CALM  /  2 1012.2R
$$

TC  - TEMPERATURE IN CELSIUS
VSB - VISIBILITY IN STATUTE MILES
WCI - WIND CHILL INDEX
HX  - HEAT INDEX



USA.gov is the U.S. government's official web portal to all federal, state and local government web resources and services.